Weather History for Hattiesburg, MS

Change the Weather History Date:

Sunday, December 4, 2011

  Actual Average Record
Temperature  
Mean Temperature 63 °F 52 °F  
Max Temperature 75 °F 64 °F 82 °F (1978)
Min Temperature 51 °F 41 °F 24 °F (1979)
Degree Days  
Heating Degree Days 2 13  
Month to date heating degree days 50 51  
Since 1 July heating degree days 414 379  
Cooling Degree Days 0 1  
Month to date cooling degree days 0 4  
Year to date cooling degree days 2764 2394  
Growing Degree Days 13 (Base 50)    
Moisture  
Dew Point 58 °F    
Average Humidity 77    
Maximum Humidity 93    
Minimum Humidity 61    
Precipitation  
Precipitation 0.01 in 0.16 in 3.89 in (1953)
Month to date precipitation 0.01 0.62  
Year to date precipitation 52.91 54.88  
Sea Level Pressure  
Sea Level Pressure 30.15 in    
Wind  
Wind Speed 8 mph (SE)    
Max Wind Speed 16 mph    
Max Gust Speed 22 mph    
Visibility 10 miles    
Events Rain    
T = Trace of Precipitation, MM = Missing Value Source: NWS Daily Summary

Daily Weather History Graph

Daily Weather History Graph

Search for Another Location

Airport:

Trip Planner

Search our weather history database for the weather conditions in past years. The results will help you decide how hot, cold, wet, or windy it might be!

Date:

Astronomy

Dec. 04, 2011 Rise Set
Actual Time 6:40 AM CST 4:53 PM CST
Civil Twilight 6:13 AM CST 5:20 PM CST
Nautical Twilight 5:43 AM CST 5:50 PM CST
Astronomical Twilight 5:14 AM CST 6:19 PM CST
Moon 1:09 PM CST (12/4) 1:22 AM CST (12/4)
Length of Visible Light 11h 06m
Length of Day
10h 13m
Waxing Gibbous, 72% of the Moon is Illuminated
Dec 4
Waxing Gibbous
Dec 10
Full
Dec 17
Last Quarter
Dec 24
New
Jan 1
First Quarter

Hourly Weather History & Observations

Time (CST) Temp. Dew Point Humidity Pressure Visibility Wind Dir Wind Speed Gust Speed Precip Events Conditions
1:53 AM 55.0 °F 52.0 °F 89% 30.23 in 10.0 mi Calm Calm - N/A   Mostly Cloudy
2:53 AM 55.9 °F 53.1 °F 90% 30.22 in 10.0 mi East 8.1 mph - N/A   Mostly Cloudy
3:53 AM 55.0 °F 52.0 °F 89% 30.22 in 10.0 mi Calm Calm - N/A   Mostly Cloudy
4:53 AM 53.1 °F 51.1 °F 93% 30.21 in 10.0 mi Calm Calm - N/A   Partly Cloudy
5:53 AM 53.1 °F 51.1 °F 93% 30.22 in 10.0 mi Calm Calm - N/A   Mostly Cloudy
6:53 AM 53.1 °F 50.0 °F 89% 30.20 in 10.0 mi ESE 3.5 mph - N/A   Clear
7:50 AM 57.2 °F 53.6 °F 88% 30.22 in 10.0 mi ESE 4.6 mph - N/A   Mostly Cloudy
7:53 AM 57.0 °F 53.1 °F 87% 30.22 in 10.0 mi East 5.8 mph - N/A   Mostly Cloudy
8:39 AM 59.0 °F 55.4 °F 88% 30.21 in 10.0 mi ESE 4.6 mph - N/A   Mostly Cloudy
8:53 AM 61.0 °F 55.0 °F 81% 30.22 in 10.0 mi SE 4.6 mph - N/A   Mostly Cloudy
9:53 AM 66.9 °F 59.0 °F 76% 30.20 in 10.0 mi SE 5.8 mph - N/A   Mostly Cloudy
10:53 AM 70.0 °F 60.1 °F 71% 30.18 in 10.0 mi SSE 13.8 mph 21.9 mph N/A   Overcast
11:38 AM 71.6 °F 60.8 °F 69% 30.16 in 10.0 mi SE 12.7 mph - N/A   Overcast
11:53 AM 72.0 °F 60.1 °F 66% 30.15 in 10.0 mi SSE 15.0 mph - N/A   Overcast
12:01 PM 73.4 °F 60.8 °F 65% 30.15 in 10.0 mi SSE 15.0 mph - N/A   Mostly Cloudy
12:53 PM 73.0 °F 60.1 °F 64% 30.12 in 10.0 mi SE 16.1 mph - N/A   Overcast
1:53 PM 73.0 °F 59.0 °F 61% 30.10 in 10.0 mi SSE 15.0 mph - N/A   Mostly Cloudy
2:53 PM 72.0 °F 59.0 °F 64% 30.09 in 10.0 mi SE 12.7 mph - N/A   Overcast
3:53 PM 70.0 °F 60.1 °F 71% 30.09 in 10.0 mi SSE 13.8 mph - N/A   Mostly Cloudy
4:53 PM 68.0 °F 60.1 °F 76% 30.10 in 10.0 mi SE 13.8 mph - 0.00 in   Overcast
5:53 PM 66.9 °F 61.0 °F 81% 30.11 in 10.0 mi SE 9.2 mph - 0.00 in Rain Light Rain
6:40 PM 66.2 °F 60.8 °F 83% 30.11 in 10.0 mi SE 9.2 mph - 0.00 in   Overcast
7:29 PM 66.2 °F 60.8 °F 83% 30.11 in 7.0 mi SE 9.2 mph - 0.00 in Rain Light Rain
7:39 PM 66.2 °F 60.8 °F 83% 30.11 in 10.0 mi SE 10.4 mph - 0.00 in   Overcast
7:53 PM 64.9 °F 61.0 °F 87% 30.12 in 7.0 mi SE 11.5 mph - 0.00 in Rain Light Rain
8:53 PM 64.0 °F 61.0 °F 90% 30.10 in 10.0 mi ESE 8.1 mph - 0.01 in Rain Light Rain
9:11 PM 64.4 °F 60.8 °F 88% 30.10 in 10.0 mi Calm Calm - 0.00 in   Overcast
9:53 PM 64.0 °F 60.1 °F 87% 30.09 in 10.0 mi SE 9.2 mph - 0.00 in   Overcast
10:22 PM 64.4 °F 60.8 °F 88% 30.10 in 10.0 mi SE 8.1 mph - N/A   Partly Cloudy
10:53 PM 64.0 °F 60.1 °F 87% 30.09 in 10.0 mi SE 10.4 mph - N/A   Partly Cloudy
11:53 PM 64.0 °F 60.1 °F 87% 30.07 in 10.0 mi SE 9.2 mph - N/A   Scattered Clouds